Showing default

PEARL WHITE 2, 44498

Orbit data source: Space-Track

PEARL WHITE 2, 44498 is a payload satellite owned by USAF AFSPC (US) in LEO that was launched on Mon, 19 Aug 2019 UTC via an ELECTRON launch vehicle from the Rocket Lab Launch Complex (RLLC). Payloads include a variety of satellites, spacecraft, and rockets equipped with specific instruments for various scientific and technological missions. These include communications satellites like Starlink; space stations such as the ISS; scientific satellites like the Hubble; Earth observation satellites from companies like Planet Labs, Umbra, and HawkEye 360; GPS; miniature CubeSats for education and research; and military/defense satellites.

Loading next visibility...
PEARL WHITE 2 details
Identifier
44498, 2019-054D
Orbit
LEO
Last TLE update7 hours ago
Origin
Flag of USUSAF AFSPC (US)
ManufacturerTiger Innov.
MissionOperational Defense Technology
Bus & MotorCUBESAT 6U, Unknown motor
Mass10 kg wet, ~10 kg dry
Launch date (UTC)
2019-08-19 (5 years ago)
Launch vehicle
ELECTRON
Launch site
Rocket Lab Launch Complex (RLLC)
Object type
Payload
Rocket body
Debris
Shape & HBRBox, 0.3 m
Radar Cross Section0.105 m², Medium (>0.1 m² and < 1m²)

Expand to show TLE details & history

TLE from 7 hours ago
0 PEARL WHITE 2
1 44498U 19054D   24361.38622347  .00149890  00000-0  15030-2 0  9991
2 44498  45.0060  41.9761 0010771  27.6135 332.5333 15.64274230296872
Epoch: 2024-12-26T09:16Z
Definitive object data (Epoch: 2024-12-26T09:16:09.707Z)
Latitude0.00001°
Longitude167.5693°
Altitude368.874 km
Speed7.694 km/s
True Right ascension02h 47m 54s
True Declination0° 00' 00"
Sunlit
Object was in full shadow at TLE epoch
Visualization TLE readout
Latitude-16.41993°
Longitude2.92347°
Altitude385.828 km
Speed7.675 km/s
Apparent Right ascension16h 23m 43s
Apparent Declination-74° 51' 51"
Sunlit
Object is in daylight
Visualization observer readout
Local Sidereal Time15:38:00
Azimuth176.726° S
Elevation-25.031°
Doppler factor1
Orbital elements
Apogee altitude384.237 km
Perigee altitude369.685 km
Semi-major axis6,755.098 km
Eccentricity0.0010771
Inclination45.006°
RAAN41.9761°
Arg. of periapsis27.6135°
True anomaly332.4763°
Mean anomaly332.5333°
Eccentric anomaly332.50481°
Mean motion3.90927 °/min
BSTAR0.001503
Orbital period92.09 mins
Loading maneuver chart data...
Loading historical data...
Loading historical data...
Loading historical data...
Loading historical data...
Loading historical data...
Loading historical data...
Loading historical data...

PEARL WHITE 2 Visibility forecast

Observer location: undefined°, undefined

Span
Click to sort rows by Start time (UTC) header in descending order
Start Az.
Max El. time (UTC)
Max El. Az.
Max El.
End time (UTC)
End Az.
4 mins2024-12-27 06:58:52.298Z255.531° W2024-12-27 07:00:52.298Z35.729° NE41.621°2024-12-27 07:02:52.298Z62.846° ENE
4 mins2024-12-27 08:35:52.298Z311.929° NW2024-12-27 08:36:52.298Z344.385° N26.384°2024-12-27 08:39:52.298Z60.303° ENE
4 mins2024-12-27 11:48:52.298Z267.913° W2024-12-27 11:49:52.298Z234.391° WSW32.698°2024-12-27 11:52:52.298Z139.525° SSE
|